Date,TemperatureHighF,TemperatureAvgF,TemperatureLowF,DewpointHighF,DewpointAvgF,DewpointLowF,HumidityHigh,HumidityAvg,HumidityLow,PressureMaxIn,PressureMinIn,WindSpeedMaxMPH,WindSpeedAvgMPH,GustSpeedMaxMPH,PrecipitationSumIn
2013-1-1,29,23,11,23,14,4,79,70,60,30.11,29.98,4,1,13,0.00
2013-1-2,28,23,15,20,16,9,79,76,71,30.13,30.01,5,1,8,0.00
2013-1-3,29,25,17,25,19,12,83,79,74,30.10,30.00,6,2,10,0.00
2013-1-4,33,28,25,24,21,19,81,76,69,30.13,29.96,9,5,14,0.00
2013-1-5,35,27,16,28,21,11,85,79,72,30.23,29.98,1,0,8,0.00
2013-1-6,36,34,32,32,30,27,86,84,80,30.21,29.86,4,0,8,0.04
2013-1-7,38,32,28,28,25,22,81,76,67,30.31,30.09,4,1,15,0.00
2013-1-8,37,30,24,29,24,19,84,78,71,30.19,30.11,3,0,11,0.02
2013-1-9,44,36,26,35,28,22,87,74,57,30.37,29.99,9,3,19,0.12
2013-1-10,44,33,24,32,26,20,85,76,61,30.53,30.13,4,1,13,0.08
2013-1-11,52,42,35,50,39,31,93,90,86,30.13,29.74,6,1,18,0.10
2013-1-12,59,49,44,52,45,41,93,87,76,29.93,29.80,2,0,8,0.00
2013-1-13,47,38,30,42,35,27,90,89,82,30.00,29.73,7,0,12,0.02
2013-1-14,30,25,19,27,20,14,88,81,74,30.38,30.00,6,1,12,0.00
2013-1-15,32,24,16,24,18,12,86,80,69,30.39,30.10,0,0,0,0.00
2013-1-16,37,29,21,27,21,17,86,73,53,30.10,29.76,7,2,12,0.00
2013-1-17,36,30,20,28,22,10,81,72,62,30.25,29.91,5,1,13,0.00
2013-1-18,34,25,14,23,17,9,81,70,59,30.37,29.92,3,0,16,0.00
2013-1-19,47,41,33,35,30,23,73,67,60,29.92,29.53,6,1,13,0.00
2013-1-20,42,24,17,34,12,7,73,60,53,30.12,29.52,12,0,21,0.00
2013-1-21,22,15,6,11,6,-4,75,67,60,30.09,29.90,0,0,0,0.00
2013-1-22,13,6,0,1,-3,-9,70,64,58,30.20,30.04,0,0,0,0.00
2013-1-23,20,12,3,11,5,-4,75,70,66,30.21,30.01,0,0,0,0.00
2013-1-24,21,14,9,10,5,0,78,68,55,30.52,30.05,0,0,0,0.00
2013-1-25,25,19,13,16,12,4,80,73,67,30.43,29.95,0,0,0,0.00
2013-1-26,32,24,17,21,16,10,81,72,59,30.38,29.99,0,0,0,0.00
2013-1-27,31,23,13,26,16,7,86,74,62,30.40,30.08,0,0,0,0.00
2013-1-28,39,35,30,37,32,26,90,89,86,30.10,29.85,0,0,0,0.00
2013-1-29,54,44,33,53,42,30,94,92,88,29.98,29.46,0,0,0,0.04
2013-1-30,57,49,33,55,47,30,94,91,87,29.46,29.12,0,0,0,0.00
2013-1-31,33,24,17,29,18,12,87,78,70,29.82,29.23,0,0,0,0.00
2013-2-1,23,17,11,15,10,4,81,75,67,30.19,29.83,0,0,0,0.00
2013-2-2,26,18,8,20,12,3,81,77,75,30.14,29.89,0,0,0,0.00
2013-2-3,25,15,3,17,8,-2,81,76,72,29.96,29.79,0,0,0,0.00
2013-2-4,26,21,17,19,15,10,82,78,72,29.96,29.83,0,0,0,0.00
2013-2-5,30,22,9,24,16,4,85,78,67,29.90,29.77,0,0,0,0.00
2013-2-6,34,26,12,23,18,7,84,71,59,30.24,29.91,0,0,0,0.00
2013-2-7,39,31,26,29,23,18,82,72,66,30.22,29.84,0,0,0,0.00
2013-2-8,29,26,16,26,21,10,88,81,73,30.29,29.76,0,0,0,0.00
2013-2-9,34,20,4,23,12,-1,81,73,58,30.38,30.22,0,0,0,0.00
2013-2-10,41,30,19,34,24,15,87,79,64,30.22,29.66,0,0,0,0.04
2013-2-11,42,37,32,39,31,26,91,81,71,29.82,29.53,0,0,0,0.02
2013-2-12,34,31,29,26,25,22,80,76,71,30.00,29.82,0,0,0,0.00
2013-2-13,40,32,27,29,24,22,81,74,62,29.88,29.70,0,0,0,0.00
2013-2-14,39,33,26,35,29,22,87,83,80,29.80,29.65,0,0,0,0.00
2013-2-15,34,29,24,28,20,16,81,69,58,30.07,29.80,0,0,0,0.00
2013-2-16,30,22,14,21,15,8,81,74,64,30.05,29.93,0,0,0,0.00
2013-2-17,27,18,11,13,9,5,80,68,53,30.15,30.00,0,0,0,0.00
2013-2-18,44,31,13,36,21,6,74,68,57,30.14,29.57,0,0,0,0.00
2013-2-19,44,30,19,38,24,12,88,79,72,29.87,29.38,0,0,0,0.02
2013-2-20,25,21,17,15,13,10,79,72,64,30.17,29.87,0,0,0,0.00
2013-2-21,28,22,20,18,15,13,80,72,62,30.33,30.17,0,0,0,0.00
2013-2-22,33,27,22,30,23,17,89,84,81,30.21,29.85,0,0,0,0.00
2013-2-23,36,31,26,30,25,20,88,76,66,29.88,29.82,0,0,0,0.00
2013-2-24,39,29,20,30,23,15,83,77,67,30.10,29.85,0,0,0,0.02
2013-2-25,43,29,15,30,21,10,84,72,56,30.18,30.06,0,0,0,0.02
2013-2-26,36,32,28,31,26,20,91,78,68,30.09,29.50,0,0,0,0.02
2013-2-27,38,35,33,35,32,31,91,89,87,29.55,29.43,0,0,0,0.00
2013-2-28,38,34,29,34,30,24,91,86,79,29.93,29.52,0,0,0,0.00
2013-3-1,29,27,25,24,21,19,83,80,76,30.07,29.93,0,0,0,0.00
2013-3-2,29,26,24,22,20,18,81,78,74,30.04,30.00,0,0,0,0.00
2013-3-3,32,24,17,21,17,11,81,73,61,30.01,29.95,0,0,0,0.00
2013-3-4,35,24,14,22,15,9,82,69,53,30.10,30.00,0,0,0,0.00
2013-3-5,37,28,20,25,20,13,82,72,60,30.09,29.81,0,0,0,0.00
2013-3-6,44,34,26,32,27,21,83,76,63,30.17,29.82,0,0,0,0.02
2013-3-7,38,33,25,31,26,18,85,75,65,30.34,30.16,0,0,0,0.00
2013-3-8,46,33,21,30,23,16,82,69,54,30.45,30.34,0,0,0,0.00
2013-3-9,46,36,26,33,28,21,84,72,58,30.37,30.01,0,0,0,0.00
2013-3-10,60,49,38,46,38,30,76,66,55,30.00,29.78,3,0,13,0.00
2013-3-11,53,48,37,46,42,33,90,82,63,29.80,29.46,6,2,17,0.02
2013-3-12,39,35,31,33,30,25,85,81,73,29.87,29.66,6,2,11,0.00
2013-3-13,34,30,26,27,22,16,85,73,61,30.13,29.82,6,3,13,0.00
2013-3-14,41,31,22,24,20,15,76,63,49,30.21,30.04,4,1,13,0.00
2013-3-15,40,35,30,33,28,20,85,75,62,30.03,29.82,4,1,8,0.02
2013-3-16,35,30,26,30,25,20,87,82,74,29.99,29.74,2,0,8,0.00
2013-3-17,33,27,21,24,17,12,80,67,53,30.22,29.99,6,2,11,0.00
2013-3-18,34,29,21,32,24,13,89,82,70,30.15,29.53,10,4,20,0.00
2013-3-19,34,28,24,30,21,18,87,76,69,29.88,29.57,8,4,14,0.00
2013-3-20,34,26,18,22,17,11,76,68,57,29.90,29.85,6,3,12,0.00
2013-3-21,35,26,17,26,19,10,80,75,68,29.89,29.80,4,2,14,0.00
2013-3-22,40,32,26,26,22,18,75,67,56,29.99,29.88,4,1,9,0.00
2013-3-23,39,31,23,27,22,18,82,71,60,30.06,29.97,2,0,7,0.00
2013-3-24,37,30,23,28,22,18,82,73,58,30.02,29.63,8,3,19,0.00
2013-3-25,40,34,31,28,26,23,77,71,62,29.89,29.55,6,3,20,0.00
2013-3-26,44,37,33,34,29,26,80,73,62,30.04,29.89,3,1,9,0.00
2013-3-27,48,39,30,32,28,24,81,65,48,30.16,30.07,5,2,12,0.00
2013-3-28,52,40,31,31,26,22,74,58,42,30.23,30.16,4,1,13,0.00
2013-3-29,53,40,29,29,24,20,73,55,35,30.24,30.16,3,0,7,0.00
2013-3-30,57,43,27,31,25,20,77,53,31,30.18,29.91,3,0,9,0.00
2013-3-31,58,45,36,43,34,26,80,64,47,29.90,29.62,6,1,11,0.02
2013-4-1,42,33,27,33,20,14,75,58,42,30.07,29.68,6,2,12,0.00
2013-4-2,42,32,24,21,16,13,73,53,38,30.21,30.05,5,2,13,0.00
2013-4-3,42,32,23,19,16,13,69,52,37,30.39,30.20,4,1,12,0.00
2013-4-4,56,41,26,26,20,16,67,46,29,30.32,29.93,4,1,9,0.00
2013-4-5,48,41,33,28,23,17,70,49,36,30.18,29.92,5,1,12,0.00
2013-4-6,51,40,30,27,23,19,67,51,37,30.21,29.77,7,2,19,0.00
2013-4-7,56,49,36,45,36,26,72,60,44,30.01,29.60,8,3,16,0.00
2013-4-8,61,44,33,54,38,26,89,79,66,30.02,29.68,9,2,17,0.00
2013-4-9,52,46,41,45,41,37,91,85,74,30.06,29.87,4,1,14,0.00
2013-4-10,45,41,38,43,39,36,92,91,89,30.00,29.81,9,2,16,0.00
2013-4-11,38,37,36,36,34,34,92,91,90,29.96,29.62,10,5,21,0.00
2013-4-12,44,39,35,41,35,33,92,88,79,29.74,29.51,7,1,13,0.00
2013-4-13,45,39,36,37,32,29,88,76,64,29.96,29.74,7,3,15,0.00
2013-4-14,47,40,31,39,32,26,83,76,68,30.08,29.92,5,1,13,0.00
2013-4-15,70,54,39,54,45,33,84,72,57,29.94,29.86,4,1,22,0.02
2013-4-16,62,54,46,53,44,35,86,68,46,30.20,29.85,5,1,11,0.04
2013-4-17,59,48,40,41,36,30,87,64,45,30.31,30.01,7,3,18,0.60
2013-4-18,78,59,43,66,54,40,91,85,65,30.00,29.55,9,2,20,0.73
2013-4-19,58,45,36,56,40,30,92,80,68,29.72,29.34,8,4,19,0.52
2013-4-20,42,36,30,30,25,21,81,64,53,30.40,29.72,7,3,16,0.00
2013-4-21,50,38,25,31,26,20,84,62,45,30.57,30.40,6,2,15,0.00
2013-4-22,62,48,33,37,30,22,79,52,28,30.43,30.17,5,1,12,0.00
2013-4-23,72,56,41,50,42,32,84,60,41,30.17,29.80,6,1,14,0.26
2013-4-24,54,41,36,50,36,29,87,84,74,30.09,29.74,3,1,12,0.48
2013-4-25,51,41,32,42,33,28,84,72,55,30.31,30.06,6,1,13,0.12
2013-4-26,60,47,30,39,34,26,85,62,43,30.41,30.30,4,0,15,0.00
2013-4-27,70,55,38,45,38,32,83,55,32,30.33,30.09,5,1,14,0.00
2013-4-28,59,53,47,51,44,35,91,73,56,30.09,29.83,4,1,13,0.22
2013-4-29,70,61,53,58,53,50,90,77,58,29.93,29.83,2,0,9,0.00
2013-4-30,70,61,52,59,54,48,90,77,63,30.07,29.93,6,1,20,0.28
2013-5-1,82,68,52,61,55,48,90,66,45,30.23,30.06,5,1,16,0.00
2013-5-2,80,68,55,58,52,47,77,59,42,30.24,30.13,6,2,17,0.00
2013-5-3,78,72,62,56,47,37,52,42,28,30.11,30.06,8,4,19,0.00
2013-5-4,70,63,55,49,43,38,67,49,35,30.12,30.06,7,3,15,0.00
2013-5-5,72,63,50,47,40,32,72,45,26,30.10,30.03,7,2,16,0.00
2013-5-6,74,62,47,51,43,37,72,52,41,30.06,29.98,5,1,12,0.00
2013-5-7,75,64,50,54,47,39,70,56,41,30.06,29.99,6,2,14,0.00
2013-5-8,80,66,53,53,49,46,80,57,36,30.03,29.93,4,0,9,0.00
2013-5-9,80,67,51,58,51,46,85,59,38,29.97,29.89,2,0,6,0.00
2013-5-10,66,56,42,61,50,38,88,79,53,29.91,29.75,2,0,10,0.26
2013-5-11,65,49,40,50,42,33,88,77,53,29.87,29.70,5,1,11,0.02
2013-5-12,50,42,35,34,31,25,79,65,52,30.06,29.85,6,2,15,0.00
2013-5-13,55,44,31,32,29,25,78,57,38,30.14,30.06,2,0,8,0.00
2013-5-14,76,56,43,52,40,31,67,56,42,30.08,29.72,5,1,12,0.00
2013-5-15,82,69,54,60,51,45,84,55,34,29.80,29.59,6,2,14,0.00
2013-5-16,82,68,50,53,47,38,77,50,32,30.03,29.79,3,0,7,0.00
2013-5-17,72,61,50,48,43,37,66,52,39,30.14,30.03,4,1,9,0.00
2013-5-18,79,66,56,50,45,42,63,49,33,30.14,30.03,4,1,14,0.00
2013-5-19,87,72,56,64,55,43,69,55,45,30.05,29.89,3,0,12,0.00
2013-5-20,89,74,63,71,63,57,84,69,46,29.94,29.78,4,1,14,0.00
2013-5-21,84,76,67,67,62,60,81,65,47,29.84,29.73,4,1,9,0.00
2013-5-22,79,70,64,65,61,58,85,76,55,29.76,29.63,4,1,15,0.00
2013-5-23,64,53,43,59,49,40,88,86,82,30.13,29.69,2,0,8,0.22
2013-5-24,55,47,40,41,38,34,89,71,55,30.33,30.13,2,0,7,0.00
2013-5-25,66,52,37,43,38,33,87,62,41,30.37,30.27,2,0,8,0.00
2013-5-26,69,56,39,46,39,34,82,55,35,30.33,30.21,2,0,6,0.00
2013-5-27,62,52,43,48,42,36,90,70,44,30.25,30.00,3,1,11,0.10
2013-5-28,70,59,51,68,57,48,93,92,90,30.00,29.81,3,0,8,0.84
2013-5-29,84,71,64,68,65,60,91,81,57,30.00,29.74,4,1,11,0.00
2013-5-30,85,73,62,73,66,60,92,80,62,30.06,29.97,3,0,11,0.00
2013-5-31,80,73,67,70,66,64,90,81,68,30.01,29.83,3,0,11,0.00
2013-6-1,79,71,64,68,64,61,91,80,65,29.87,29.69,4,0,9,0.04
2013-6-2,70,64,53,62,57,44,87,76,64,29.98,29.66,4,1,9,0.02
2013-6-3,67,56,43,46,43,38,83,63,44,30.08,29.98,2,0,6,0.00
2013-6-4,72,61,48,50,46,40,85,60,42,30.18,30.08,2,0,6,0.00
2013-6-5,72,61,49,48,44,39,70,53,40,30.17,29.99,3,0,10,0.00
2013-6-6,67,60,56,54,48,42,74,65,56,30.01,29.87,0,0,0,0.00
2013-6-7,62,56,52,54,50,47,85,80,74,29.92,29.87,0,0,0,0.00
2013-6-8,72,63,56,56,52,50,82,71,54,30.07,29.91,0,0,0,0.00
2013-6-9,73,65,56,59,55,51,83,69,56,30.11,29.96,0,0,0,0.00
2013-6-10,71,65,60,66,60,52,92,85,60,29.97,29.74,0,0,0,1.36
2013-6-11,81,70,63,68,64,60,92,81,61,29.90,29.77,0,0,0,0.00
2013-6-12,74,69,62,67,64,58,90,83,79,29.94,29.65,0,0,0,0.31
2013-6-13,77,68,61,63,60,57,92,75,54,29.93,29.58,0,0,0,0.96
2013-6-14,76,66,58,58,54,50,81,67,50,30.08,29.93,0,0,0,0.00
2013-6-15,78,66,56,63,58,51,88,74,55,30.08,29.93,0,0,0,0.00
2013-6-16,80,70,63,67,62,55,90,75,51,29.93,29.77,0,0,0,0.42
2013-6-17,86,71,59,65,59,54,85,67,43,29.94,29.84,0,0,0,0.00
2013-6-18,71,63,55,56,51,42,86,66,45,30.08,29.90,0,0,0,0.08
2013-6-19,75,63,49,54,48,41,78,59,45,30.16,30.07,0,0,0,0.00
2013-6-20,82,69,54,59,55,49,85,63,44,30.21,30.14,0,0,0,0.00
2013-6-21,84,71,59,68,60,53,82,68,51,30.21,30.05,0,0,0,0.00
2013-6-22,88,76,68,73,66,59,80,71,60,30.10,30.00,0,0,0,0.00
2013-6-23,90,79,69,72,68,64,86,69,52,30.06,29.97,0,0,0,0.00
2013-6-24,88,78,68,72,67,62,86,72,55,30.07,29.93,0,0,0,0.39
2013-6-25,80,72,66,72,67,63,91,85,75,29.99,29.84,0,0,0,0.30
2013-6-26,83,74,65,72,68,62,91,81,68,29.89,29.76,0,0,0,0.02
2013-6-27,83,72,66,73,67,62,91,85,70,29.78,29.64,0,0,0,1.49
2013-6-28,79,68,65,68,64,61,93,87,66,29.66,29.54,0,0,0,0.22
2013-6-29,74,68,63,64,61,57,92,81,70,29.75,29.56,0,0,0,0.00
2013-6-30,77,69,62,62,58,48,85,69,53,29.96,29.75,0,0,0,0.00
2013-7-1,67,62,58,58,53,47,87,72,57,30.08,29.95,0,0,0,0.18
2013-7-2,73,65,57,64,58,53,88,80,70,30.08,30.02,2,0,9,0.00
2013-7-3,84,71,61,70,64,57,89,77,59,30.11,30.05,3,0,10,0.00
2013-7-4,80,74,67,68,65,60,88,75,60,30.14,30.07,2,0,8,0.00
2013-7-5,84,74,66,68,64,60,88,71,50,30.12,30.05,1,0,6,0.00
2013-7-6,84,75,67,70,67,63,88,78,62,30.12,30.00,3,0,9,0.02
2013-7-7,82,74,70,71,68,66,89,81,66,30.04,29.96,2,0,6,0.00
2013-7-8,83,73,68,75,68,64,90,86,75,30.05,29.98,4,0,9,0.94
2013-7-9,88,76,69,75,70,66,93,82,62,29.99,29.89,4,0,8,0.06
2013-7-10,88,78,67,76,70,58,91,76,60,29.96,29.79,4,1,9,0.06
2013-7-11,78,69,62,61,58,56,83,69,52,30.08,29.96,1,0,6,0.00
2013-7-12,81,68,57,63,58,52,87,71,51,30.16,30.08,3,0,11,0.00
2013-7-13,83,73,61,65,60,56,86,66,47,30.22,30.14,4,1,10,0.00
2013-7-14,87,77,65,71,67,60,87,72,57,30.27,30.21,3,0,9,0.00
2013-7-15,88,78,70,78,71,66,89,81,69,30.30,30.23,3,0,7,0.79
2013-7-16,91,81,74,78,74,70,92,82,65,30.32,30.24,2,0,5,0.00
2013-7-17,93,82,73,79,74,69,90,78,60,30.29,30.16,2,0,6,0.00
2013-7-18,94,82,73,78,74,69,89,75,58,30.18,29.97,4,0,9,0.00
2013-7-19,93,82,75,76,72,66,86,73,53,29.98,29.73,8,2,20,0.46
2013-7-20,86,76,68,71,66,62,90,72,48,29.94,29.75,2,0,7,0.00
2013-7-21,82,72,63,66,61,54,84,71,57,30.02,29.94,1,0,3,0.00
2013-7-22,80,73,67,69,65,61,86,76,65,29.97,29.78,2,0,9,0.00
2013-7-23,78,70,61,74,65,53,91,84,71,29.89,29.70,4,0,11,0.84
2013-7-24,70,63,58,55,53,50,78,68,57,30.06,29.89,2,0,8,0.00
2013-7-25,74,64,52,57,54,48,88,70,52,30.11,30.05,2,0,7,0.00
2013-7-26,80,68,58,64,58,54,87,72,53,30.11,29.92,2,0,8,0.00
2013-7-27,74,66,56,66,61,53,88,83,74,29.93,29.74,3,0,10,0.37
2013-7-28,66,58,52,59,53,48,91,86,74,29.97,29.83,3,0,7,0.20
2013-7-29,68,61,56,59,56,53,89,83,71,30.18,29.97,2,0,4,0.00
2013-7-30,77,65,53,62,58,50,90,76,59,30.23,30.13,1,0,5,0.00
2013-7-31,72,67,63,66,63,58,92,87,81,30.13,29.90,2,0,5,0.67
2013-8-1,78,67,61,66,62,56,92,83,58,29.93,29.87,2,0,8,0.00
2013-8-2,74,65,55,63,59,52,91,82,67,29.94,29.85,3,0,8,0.00
2013-8-3,78,69,60,62,59,54,92,73,52,30.06,29.90,2,0,6,0.00
2013-8-4,73,64,56,58,55,52,86,73,58,30.16,30.06,1,0,6,0.00
2013-8-5,72,64,56,58,55,51,84,74,58,30.13,29.97,1,0,7,0.00
2013-8-6,78,68,62,68,63,57,90,84,71,29.98,29.90,2,0,10,0.16
2013-8-7,81,72,65,72,66,62,92,84,72,29.92,29.81,3,0,8,0.10
2013-8-8,76,69,65,67,62,58,89,79,66,30.02,29.90,1,0,4,0.00
2013-8-9,80,69,59,63,59,54,87,72,52,30.01,29.95,1,0,6,0.00
2013-8-10,75,68,61,62,59,56,88,75,58,30.14,30.02,1,0,3,0.00
2013-8-11,77,68,60,64,60,56,88,75,59,30.13,30.04,1,0,4,0.00
2013-8-12,70,66,64,67,62,60,92,88,80,30.06,29.85,1,0,5,0.75
2013-8-13,66,62,55,63,54,47,92,77,59,30.05,29.84,3,0,8,0.00
2013-8-14,70,59,50,56,50,45,85,74,57,30.16,30.05,2,0,5,0.00
2013-8-15,74,62,50,56,53,47,89,74,53,30.17,30.09,1,0,4,0.00
2013-8-16,77,65,54,59,55,50,88,73,51,30.21,30.11,1,0,5,0.00
2013-8-17,79,66,54,60,55,50,88,70,44,30.27,30.18,2,0,8,0.00
2013-8-18,82,68,57,64,58,52,88,72,48,30.23,30.11,2,0,9,0.00
2013-8-19,83,70,58,64,58,54,88,70,44,30.13,30.04,2,0,5,0.00
2013-8-20,86,72,60,68,62,56,89,73,53,30.15,30.07,2,0,5,0.00
2013-8-21,85,74,64,71,66,60,89,76,62,30.14,30.00,1,0,8,0.00
2013-8-22,82,75,70,69,67,64,85,76,65,30.05,29.94,2,0,5,0.00
2013-8-23,80,70,61,65,58,54,86,67,43,30.21,30.05,2,0,6,0.00
2013-8-24,82,69,57,64,58,53,87,69,49,30.31,30.21,2,0,6,0.00
2013-8-25,87,72,59,67,61,54,88,70,49,30.30,30.15,2,0,7,0.00
2013-8-26,86,77,69,72,67,61,83,71,61,30.16,29.98,3,1,9,0.00
2013-8-27,81,75,71,75,71,67,91,86,80,30.00,29.85,4,0,8,0.50
2013-8-28,80,75,74,73,72,69,92,90,78,29.98,29.81,4,0,9,0.92
2013-8-29,85,78,66,72,69,64,92,75,59,30.01,29.93,1,0,14,0.00
2013-8-30,86,78,67,72,70,64,91,76,62,29.90,29.74,0,0,0,0.26
2013-9-2,74,71,68,64,61,58,80,70,67,29.83,29.81,1,0,4,0.00
2013-9-3,73,63,58,59,54,52,82,74,59,29.98,29.88,0,0,0,0.00
2013-9-4,79,72,65,64,62,60,84,71,58,30.04,29.99,0,0,0,0.00
2013-9-5,69,62,54,60,50,46,81,65,53,30.23,30.05,1,0,8,0.00
2013-9-6,74,63,48,54,51,44,88,66,47,30.25,30.04,2,0,9,0.00
2013-9-7,78,67,58,68,60,51,89,79,67,30.04,29.87,2,0,6,0.12
2013-9-8,72,67,57,65,59,50,89,76,58,30.06,29.90,4,0,9,0.00
2013-9-9,72,63,53,68,59,49,90,86,78,30.05,29.88,2,0,8,0.12
2013-9-10,92,79,68,75,70,65,92,75,50,29.98,29.86,4,1,9,0.00
2013-9-11,88,76,68,74,68,64,89,76,61,30.00,29.87,8,0,19,1.67
2013-9-12,77,69,62,65,63,55,92,82,56,29.92,29.82,2,0,6,0.18
2013-9-13,60,55,47,49,46,41,80,72,63,30.10,29.93,2,0,6,0.00
2013-9-14,66,59,42,49,47,38,87,66,53,30.16,30.06,0,0,5,0.00
2013-9-15,63,54,49,54,49,45,88,82,73,30.08,30.05,0,0,0,0.04
2013-9-16,60,54,48,52,47,42,90,78,64,30.35,30.13,0,0,0,0.00
2013-9-17,66,54,41,53,46,37,89,74,57,30.37,30.20,100,36,114,0.00
2013-9-18,74,67,48,60,55,43,89,68,53,30.19,30.02,4,0,27,0.00
2013-9-19,79,71,59,69,64,55,89,79,71,30.02,29.90,0,0,0,0.00
2013-9-20,78,73,68,71,68,64,90,84,75,29.87,29.73,0,0,0,0.02
2013-9-21,67,62,55,64,55,46,91,78,65,29.84,29.67,0,0,0,0.02
2013-9-22,54,52,50,46,44,43,76,74,72,29.95,29.85,93,46,114,0.00
2013-10-13,67,58,48,56,47,41,86,68,42,30.25,30.00,0,0,0,0.00
2013-10-14,62,52,45,44,42,40,85,71,52,30.31,30.18,0,0,0,0.00
2013-10-15,63,54,42,57,49,38,90,83,75,30.16,29.75,0,0,0,0.00
2013-10-16,61,55,51,58,49,45,90,80,65,29.82,29.71,0,0,0,0.00
2013-10-17,52,50,47,48,46,43,88,85,81,29.81,29.66,0,0,0,0.00
2013-10-18,59,51,43,48,42,40,90,71,55,29.81,29.75,2,0,6,0.00
2013-10-19,47,45,44,40,40,38,86,82,79,29.80,29.72,0,0,3,0.04
2013-10-20,56,47,38,44,40,35,88,78,61,29.82,29.72,3,0,9,0.02
2013-10-21,54,50,42,48,42,34,82,73,67,29.76,29.70,4,1,11,0.02
2013-10-22,49,42,35,35,32,28,78,68,55,29.81,29.74,4,1,10,0.00
2013-10-23,46,40,34,34,30,28,84,71,52,29.82,29.71,3,0,8,0.00
2013-10-24,47,38,33,34,30,27,83,73,54,30.05,29.81,4,1,8,0.00
2013-10-25,47,39,33,35,30,28,84,72,57,30.21,29.98,4,1,7,0.00
2013-10-26,49,43,38,37,32,28,82,65,57,29.98,29.66,6,2,14,0.08
2013-10-27,50,41,33,37,33,29,86,75,59,29.96,29.87,4,0,7,0.00
2013-10-28,49,41,34,38,33,29,82,73,64,30.29,29.93,4,0,9,0.00
2013-10-29,48,42,39,35,32,30,74,68,58,30.32,30.14,2,0,6,0.00
2013-10-30,62,48,35,48,39,30,86,72,56,30.14,29.85,2,0,10,0.08
2013-10-31,60,58,52,57,55,46,91,89,82,29.88,29.09,4,1,22,0.90
2013-11-1,59,49,46,57,43,39,91,79,69,29.57,29.03,8,3,20,0.04
2013-11-2,46,44,35,42,39,31,88,85,81,30.00,29.55,2,0,7,0.22
2013-11-3,44,37,32,35,31,28,88,79,66,30.32,29.99,2,0,9,0.00
2013-11-4,48,40,34,34,31,29,84,70,50,30.35,30.19,6,1,19,0.00
2013-11-5,56,49,42,45,41,33,82,75,67,30.24,30.06,2,0,11,0.00
2013-11-6,54,51,43,50,45,38,87,80,67,30.06,29.69,8,2,19,0.22
2013-11-7,44,40,35,38,31,28,85,72,56,30.02,29.87,7,2,13,0.02
2013-11-8,45,36,30,32,28,25,84,73,56,30.16,30.00,3,0,6,0.00
2013-11-9,55,46,35,40,35,29,78,66,56,30.05,29.69,7,3,15,0.00
2013-11-10,48,42,33,36,31,27,78,65,56,30.15,29.79,6,2,12,0.00
2013-11-11,42,36,28,37,30,21,83,77,71,30.18,29.91,3,0,9,0.16
2013-11-12,34,28,24,23,19,16,77,70,61,30.40,30.18,2,0,8,0.00
2013-11-13,40,30,20,26,18,14,81,63,44,30.40,30.02,7,2,12,0.00
2013-11-14,49,39,31,29,23,17,60,52,44,30.03,29.86,5,2,12,0.02
2013-11-15,51,42,37,31,27,23,65,54,45,29.95,29.87,3,0,14,0.00
2013-11-16,55,45,34,50,38,26,83,77,65,29.99,29.69,4,1,15,0.00
2013-11-17,60,56,46,56,52,39,89,85,72,29.70,29.15,13,3,32,0.52
2013-11-18,46,40,34,40,30,24,80,69,65,30.00,29.37,14,7,22,0.00
2013-11-19,41,34,29,25,23,20,76,63,52,30.28,30.01,5,1,11,0.00
2013-11-20,45,35,26,32,25,20,84,68,46,30.31,30.12,8,2,18,0.00
2013-11-21,48,43,39,41,36,27,86,75,63,30.17,30.06,3,0,14,0.22
2013-11-22,45,39,28,42,35,23,88,84,76,30.23,30.02,5,1,14,0.06
2013-11-23,29,27,26,23,21,15,84,79,60,30.23,30.13,6,2,11,0.00
2013-11-24,26,20,15,12,10,7,75,68,56,30.43,30.24,6,2,0,0.00
2013-11-25,32,26,20,23,15,9,77,65,53,30.22,29.94,4,1,0,0.00
2013-11-26,34,32,29,27,25,23,81,77,74,29.95,29.81,4,1,8,0.00
2013-11-27,29,24,19,23,14,9,79,67,57,30.05,29.80,6,2,16,0.00
2013-11-28,30,23,16,21,16,9,78,72,67,30.28,30.05,3,0,11,0.00
2013-11-29,33,24,14,23,16,9,81,74,62,30.51,30.28,2,0,5,0.00
2013-11-30,42,34,26,29,25,20,76,69,59,30.39,29.98,3,0,11,0.00
2013-12-1,43,36,31,33,29,24,82,75,67,29.98,29.88,2,0,7,0.00
2013-12-2,38,33,28,28,25,20,81,71,56,29.88,29.77,3,0,6,0.00
2013-12-3,38,34,27,34,28,20,87,81,74,29.80,29.73,5,2,12,0.00
2013-12-4,52,45,38,48,41,34,89,86,82,29.79,29.52,4,1,14,0.02
2013-12-5,55,42,31,52,34,21,89,73,62,30.02,29.51,10,4,18,0.02
2013-12-6,31,27,21,22,17,12,70,67,63,30.25,30.00,5,1,10,0.00
2013-12-7,26,21,14,13,10,6,70,63,54,30.46,30.25,6,2,11,0.00
2013-12-8,28,20,14,24,12,6,84,72,61,30.44,29.86,8,2,17,0.00
2013-12-9,29,26,20,25,20,12,84,77,70,29.95,29.74,8,4,16,0.00
2013-12-10,23,19,13,15,10,5,76,68,54,30.03,29.82,8,3,17,0.00
2013-12-11,26,19,9,17,10,0,76,70,64,30.30,30.03,6,2,11,0.00
2013-12-12,21,14,4,12,5,-4,75,68,54,30.30,30.02,8,2,15,0.00
2013-12-13,30,25,20,20,17,12,75,71,67,30.15,29.99,5,1,10,0.00
2013-12-14,22,19,17,17,13,10,81,77,67,30.13,29.69,7,3,17,0.00
2013-12-15,26,20,13,21,14,6,82,77,69,29.88,29.66,9,2,17,0.00
2013-12-16,24,14,4,13,7,-2,78,71,61,30.03,29.87,3,0,7,0.00
2013-12-17,31,23,15,23,17,8,83,78,72,29.87,29.74,5,0,9,0.00
2013-12-18,33,27,22,24,20,14,83,76,67,29.98,29.77,6,1,13,0.00
2013-12-19,42,33,25,33,26,16,83,74,68,29.87,29.73,3,0,6,0.08
2013-12-20,37,34,33,33,31,29,88,87,84,29.80,29.62,3,0,6,0.36
2013-12-21,35,34,32,32,30,29,88,88,87,29.75,29.55,2,0,6,0.42
2013-12-22,37,34,32,33,30,28,89,87,85,29.83,29.44,5,0,11,0.24
2013-12-23,32,28,22,28,23,14,87,81,72,30.16,29.84,1,0,6,0.00
2013-12-24,21,15,7,14,8,1,79,73,64,30.38,30.14,2,0,7,0.00
2013-12-25,24,20,9,20,14,3,82,78,75,30.34,29.97,3,0,14,0.00
2013-12-26,29,26,24,24,20,17,84,77,68,30.13,29.89,1,0,8,0.00
2013-12-27,41,33,26,32,27,20,84,78,69,30.17,29.92,4,0,14,0.06
2013-12-28,47,39,32,35,31,25,80,73,63,29.99,29.77,5,1,10,0.06
2013-12-29,43,34,22,32,27,14,81,74,66,29.88,29.59,5,1,11,0.00
2013-12-30,23,20,16,14,10,6,73,65,58,30.12,29.88,4,1,14,0.00
2013-12-31,21,18,14,12,10,7,75,70,62,30.17,29.90,8,3,13,0.00
2014-1-1,17,14,12,11,6,3,78,72,66,30.24,30.08,3,1,9,0.00
2014-1-2,16,12,3,10,5,-4,79,74,68,30.13,29.95,8,3,19,0.00